Location: Boissi�res
(45.2500°N, 2.3667°E)
Time: 18:23:08
(UTC+00:00)

USA 305 - Pass Details

Date: 03 March 2021
Orbit: 567 x 574 km, 54.0° (Epoch: 18 April)

Event Time Altitude Azimuth Distance (km) Brightness Sun altitude
Rises 19:44:52 0° 296° (WNW) 2,780 7.8 -22.5°
Reaches altitude 10° 19:47:25 10° 310° (NW) 1,880 6.4 -23.0°
Maximum altitude 19:51:03 26° 8° (N) 1,140 4.4 -23.6°
Enters shadow 19:51:20 26° 14° (NNE) 1,145 4.4 -23.6°
